Weather History for Livingston, MT

Change the Weather History Date:

Friday, January 31, 2014

  Actual Average Record
Temperature  
Mean Temperature 17 °F 27 °F  
Max Temperature 31 °F 37 °F 60 °F (1992)
Min Temperature 2 °F 18 °F -18 °F (1975)
Degree Days  
Heating Degree Days 48 38  
Month to date heating degree days 990 1182  
Since 1 July heating degree days 3945 4341  
Moisture  
Dew Point 8 °F    
Average Humidity 68    
Maximum Humidity 86    
Minimum Humidity 49    
Precipitation  
Precipitation 0.11 in 0.02 in 0.23 in (1957)
Month to date precipitation 0.41 0.49  
Year to date precipitation 0.41 0.49  
Sea Level Pressure  
Sea Level Pressure 29.90 in    
Wind  
Wind Speed 13 mph (WNW)    
Max Wind Speed 29 mph    
Max Gust Speed 35 mph    
Visibility 6 miles    
Events Fog , Snow    
T = Trace of Precipitation, MM = Missing Value Source: NWS Daily Summary

Daily Weather History Graph

Daily Weather History Graph

Search for Another Location

Airport:

Trip Planner

Search our weather history database for the weather conditions in past years. The results will help you decide how hot, cold, wet, or windy it might be!

Date:

Astronomy

Jan. 31, 2014 Rise Set
Actual Time 7:44 AM MST 5:26 PM MST
Civil Twilight 7:12 AM MST 5:58 PM MST
Nautical Twilight 6:36 AM MST 6:34 PM MST
Astronomical Twilight 6:02 AM MST 7:09 PM MST
Moon 7:51 AM MST (1/31) 7:02 PM MST (1/31)
Length of Visible Light 10h 45m
Length of Day
9h 42m
New Moon, 1% of the Moon is Illuminated
Jan 31
New Moon
Feb 6
First Quarter
Feb 14
Full
Feb 22
Last Quarter
Mar 1
New

Hourly Weather History & Observations

Time (MST) Temp. Windchill Dew Point Humidity Pressure Visibility Wind Dir Wind Speed Gust Speed Precip Events Conditions
12:53 AM 6.1 °F -0.9 °F 1.9 °F 83% 29.98 in 10.0 mi WSW 3.5 mph - 0.00 in   Mostly Cloudy
1:53 AM 9.0 °F -2.2 °F 3.9 °F 80% 29.96 in 10.0 mi NW 6.9 mph - N/A   Overcast
2:53 AM 3.0 °F -6.4 °F -2.0 °F 80% 29.98 in 10.0 mi WNW 4.6 mph - N/A   Clear
3:53 AM 3.9 °F -12.2 °F -0.9 °F 80% 29.95 in 10.0 mi NW 11.5 mph - N/A   Clear
4:53 AM 3.0 °F -16.7 °F -2.0 °F 80% 29.95 in 10.0 mi NNW 17.3 mph - N/A   Mostly Cloudy
5:53 AM 1.9 °F -18.7 °F -4.0 °F 76% 29.96 in 10.0 mi NW 18.4 mph - N/A   Mostly Cloudy
6:53 AM 3.0 °F -15.5 °F -2.9 °F 76% 29.96 in 10.0 mi NW 15.0 mph - N/A   Mostly Cloudy
7:53 AM 6.1 °F -9.5 °F -0.0 °F 76% 29.94 in 10.0 mi WNW 11.5 mph - N/A   Mostly Cloudy
8:53 AM 9.0 °F -6.6 °F 1.9 °F 73% 29.94 in 10.0 mi NW 12.7 mph - N/A   Scattered Clouds
9:53 AM 21.0 °F 7.1 °F 10.9 °F 65% 29.89 in 10.0 mi West 16.1 mph - N/A   Mostly Cloudy
10:53 AM 25.0 °F 11.3 °F 12.0 °F 58% 29.88 in 10.0 mi West 18.4 mph - N/A   Clear
11:53 AM 27.0 °F 17.3 °F 15.1 °F 61% 29.88 in 10.0 mi NW 10.4 mph - N/A   Overcast
12:53 PM 30.0 °F 18.7 °F 14.0 °F 51% 29.86 in 10.0 mi West 16.1 mph - N/A   Overcast
1:53 PM 28.9 °F 14.0 °F 18.0 °F 64% 29.84 in 10.0 mi West 27.6 mph 35.7 mph N/A   Mostly Cloudy
2:53 PM 28.0 °F 14.6 °F 17.1 °F 63% 29.85 in 10.0 mi WSW 20.7 mph - N/A   Mostly Cloudy
3:53 PM 28.9 °F 19.2 °F 15.1 °F 56% 29.86 in 10.0 mi West 11.5 mph - N/A   Overcast
4:53 PM 28.9 °F 15.4 °F 15.1 °F 56% 29.88 in 10.0 mi West 21.9 mph 27.6 mph N/A   Mostly Cloudy
5:53 PM 26.1 °F 20.5 °F 18.0 °F 71% 29.92 in 10.0 mi West 4.6 mph - 0.00 in   Overcast
6:43 PM 17.1 °F 0.1 °F 10.0 °F 74% 29.73 in 10.0 mi ENE 20.7 mph 27.6 mph 0.00 in   Overcast
6:53 PM 16.0 °F 0.1 °F 10.0 °F 77% 29.96 in 10.0 mi East 17.3 mph 27.6 mph 0.00 in   Overcast
7:17 PM 16.0 °F 2.3 °F 10.0 °F 77% 29.78 in 9.0 mi ENE 12.7 mph - N/A   Overcast
7:27 PM 16.0 °F 7.4 °F 10.0 °F 77% 29.79 in 1.8 mi Variable 5.8 mph 21.9 mph 0.00 in Snow Light Snow
7:39 PM 15.1 °F 5.2 °F 10.0 °F 80% 29.80 in 0.8 mi East 6.9 mph - 0.00 in Snow Light Snow
7:53 PM 15.1 °F 3.3 °F 10.9 °F 84% 30.03 in 0.8 mi ESE 9.2 mph - 0.01 in Snow Light Snow
8:10 PM 15.1 °F 6.4 °F 10.9 °F 84% 29.81 in 0.2 mi SE 5.8 mph - 0.02 in Fog , Snow Heavy Snow
8:23 PM 15.1 °F 7.7 °F 10.9 °F 84% 29.82 in 0.2 mi ESE 4.6 mph - 0.05 in Fog , Snow Heavy Snow
8:53 PM 15.1 °F 6.4 °F 10.9 °F 84% 30.05 in 0.5 mi West 5.8 mph - 0.10 in Fog , Snow Snow
9:02 PM 15.1 °F 4.2 °F 10.0 °F 80% 29.84 in 0.8 mi West 8.1 mph - 0.00 in Snow Light Snow
9:09 PM 14.0 °F 1.2 °F 10.0 °F 84% 29.84 in 1.0 mi NW 10.4 mph - 0.00 in Snow Light Snow
9:18 PM 15.1 °F 0.5 °F 9.0 °F 77% 29.84 in 1.5 mi NW 13.8 mph - 0.00 in Snow Light Snow
9:26 PM 14.0 °F -2.0 °F 9.0 °F 80% 29.85 in 1.2 mi NNW 16.1 mph - 0.00 in Snow Light Snow
9:43 PM 14.0 °F -0.8 °F 8.1 °F 77% 29.86 in 1.0 mi NNW 13.8 mph 24.2 mph 0.00 in Snow Light Snow
9:53 PM 12.9 °F -0.2 °F 9.0 °F 84% 30.04 in 1.0 mi NNW 10.4 mph - 0.00 in Snow Light Snow
10:02 PM 12.9 °F 5.2 °F 8.1 °F 81% 29.86 in 1.5 mi WNW 4.6 mph - 0.00 in Snow Light Snow
10:32 PM 12.9 °F 2.6 °F 8.1 °F 81% 29.87 in 3.0 mi West 6.9 mph - 0.00 in Snow Light Snow
10:53 PM 14.0 °F -0.2 °F 5.0 °F 67% 30.04 in 9.0 mi NNW 12.7 mph - 0.00 in   Overcast
11:53 PM 12.9 °F -3.4 °F 5.0 °F 71% 30.05 in 6.0 mi NW 16.1 mph - 0.00 in Snow Light Snow